Hailey, ID

9:29 AM MDT on April 23, 2018 (GMT -0600)
Friedman Memorial

Weather History for KSUN - May, 2013

Change the Weather History Date:

Sunday, May 12, 2013

  Actual Average Record
Temperature  
Mean Temperature 65 °F -  
Max Temperature 80 °F 61 °F 84 °F (2001)
Min Temperature 50 °F 36 °F 28 °F (2000)
Growing Degree Days 15 (Base 50)    
Moisture  
Dew Point 36 °F    
Average Humidity 45    
Maximum Humidity 58    
Minimum Humidity 22    
Precipitation  
Precipitation 0.00 in - - ()
Sea Level Pressure  
Sea Level Pressure 30.26 in    
Wind  
Wind Speed 12 mph (NW)    
Max Wind Speed 18 mph    
Max Gust Speed 22 mph    
Visibility 10 miles    
Events      
Averages and records for this station are not official NWS values.
T = Trace of Precipitation, MM = Missing Value Source: NWS Daily Summary

Daily Weather History Graph

Daily Weather History Graph

Search for Another Location

Airport or City:

Astronomy

May. 12, 2013 Rise Set
Actual Time 6:15 AM MDT 8:52 PM MDT
Civil Twilight 5:42 AM MDT 9:25 PM MDT
Nautical Twilight 5:01 AM MDT 10:06 PM MDT
Astronomical Twilight 4:15 AM MDT 10:53 PM MDT
Moon 8:12 AM MDT (5/12) 11:23 PM MDT (5/12)
Length of Visible Light 15h 42m
Length of Day
14h 36m
Waxing Crescent, 7% of the Moon is Illuminated
May 12
Waxing Crescent
May 17
First Quarter
May 24
Full
May 31
Last Quarter
Jun 8
New

Hourly Weather History & Observations

Time (MDT) Temp. Dew Point Humidity Pressure Visibility Wind Dir Wind Speed Gust Speed Precip Events Conditions
12:15 AM 55.4 °F 35.6 °F 47% 30.29 in 10.0 mi NNW 10.4 mph - N/A   Clear
12:35 AM 57.2 °F 35.6 °F 44% 30.29 in 10.0 mi NW 10.4 mph - N/A   Clear
12:55 AM 55.4 °F 35.6 °F 47% 30.29 in 10.0 mi NNW 11.5 mph - N/A   Clear
1:15 AM 53.6 °F 35.6 °F 51% 30.29 in 10.0 mi NNW 17.3 mph - N/A   Clear
1:35 AM 53.6 °F 35.6 °F 51% 30.29 in 10.0 mi NNW 16.1 mph - N/A   Clear
1:55 AM 53.6 °F 35.6 °F 51% 30.30 in 10.0 mi NNW 13.8 mph 18.4 mph N/A   Clear
2:15 AM 53.6 °F 35.6 °F 51% 30.30 in 10.0 mi NNW 11.5 mph - N/A   Clear
2:35 AM 51.8 °F 35.6 °F 54% 30.30 in 10.0 mi Calm Calm - N/A   Clear
2:55 AM 51.8 °F 35.6 °F 54% 30.30 in 10.0 mi NNW 9.2 mph - N/A   Clear
3:15 AM 51.8 °F 35.6 °F 54% 30.30 in 10.0 mi NW 11.5 mph - N/A   Clear
3:35 AM 51.8 °F 35.6 °F 54% 30.30 in 10.0 mi NW 16.1 mph 19.6 mph N/A   Clear
3:55 AM 50.0 °F 35.6 °F 58% 30.30 in 10.0 mi NNW 15.0 mph - N/A   Clear
4:15 AM 50.0 °F 35.6 °F 58% 30.30 in 10.0 mi NNW 12.7 mph - N/A   Clear
4:35 AM 50.0 °F 35.6 °F 58% 30.30 in 10.0 mi NNW 15.0 mph 19.6 mph N/A   Clear
4:55 AM 50.0 °F 35.6 °F 58% 30.30 in 10.0 mi NW 12.7 mph - N/A   Clear
5:15 AM 50.0 °F 35.6 °F 58% 30.29 in 10.0 mi NW 16.1 mph - N/A   Clear
5:35 AM 50.0 °F 35.6 °F 58% 30.29 in 10.0 mi NNW 13.8 mph - N/A   Clear
5:55 AM 50.0 °F 35.6 °F 58% 30.29 in 10.0 mi NNW 15.0 mph - N/A   Clear
6:15 AM 50.0 °F 35.6 °F 58% 30.29 in 10.0 mi NNW 13.8 mph - N/A   Clear
6:35 AM 50.0 °F 35.6 °F 58% 30.30 in 10.0 mi NNW 15.0 mph - N/A   Clear
6:47 AM 50.0 °F 35.6 °F 58% 30.30 in 10.0 mi NW 13.8 mph - N/A   Scattered Clouds
6:55 AM 50.0 °F 35.6 °F 58% 30.30 in 10.0 mi NW 13.8 mph - N/A   Clear
7:47 AM 51.8 °F 35.6 °F 54% 30.30 in 10.0 mi WNW 18.4 mph - N/A   Partly Cloudy
8:50 AM 57.2 °F 37.4 °F 48% 30.30 in 10.0 mi NW 13.8 mph - N/A   Partly Cloudy
9:47 AM 64.4 °F 37.4 °F 37% 30.29 in 10.0 mi NW 10.4 mph - N/A   Partly Cloudy
10:47 AM 71.6 °F 37.4 °F 29% 30.28 in 10.0 mi Calm Calm - N/A   Scattered Clouds
11:47 AM 75.2 °F 37.4 °F 25% 30.26 in 10.0 mi East 6.9 mph - N/A   Scattered Clouds
12:47 PM 78.8 °F 37.4 °F 23% 30.24 in 10.0 mi ESE 11.5 mph - N/A   Mostly Cloudy
2:47 PM 80.6 °F 39.2 °F 23% 30.21 in 10.0 mi South 12.7 mph 19.6 mph N/A   Overcast
3:47 PM 78.8 °F 39.2 °F 24% 30.20 in 10.0 mi SSW 10.4 mph 20.7 mph N/A   Overcast
4:50 PM 78.8 °F 39.2 °F 24% 30.18 in 10.0 mi SSW 15.0 mph - N/A   Mostly Cloudy
5:50 PM 78.8 °F 37.4 °F 23% 30.17 in 10.0 mi SSW 13.8 mph 21.9 mph N/A   Mostly Cloudy
6:47 PM 78.8 °F 37.4 °F 23% 30.15 in 10.0 mi SSW 11.5 mph - N/A   Mostly Cloudy
7:47 PM 75.2 °F 33.8 °F 22% 30.15 in 10.0 mi West 9.2 mph - N/A   Scattered Clouds
8:47 PM 71.6 °F 39.2 °F 31% 30.15 in 10.0 mi Calm Calm - N/A   Scattered Clouds
9:47 PM 66.2 °F 37.4 °F 35% 30.16 in 10.0 mi NW 8.1 mph - N/A   Clear
10:47 PM 62.6 °F 39.2 °F 42% 30.18 in 10.0 mi NW 6.9 mph - N/A   Clear
11:35 PM 62.6 °F 37.4 °F 39% 30.18 in 10.0 mi NW 8.1 mph - N/A   Clear
11:55 PM 60.8 °F 37.4 °F 42% 30.19 in 10.0 mi NW 5.8 mph - N/A   Clear